Weather History for Cottonwood Pass, CO

Change the Weather History Date:

Sunday, November 3, 2013

  Actual Average Record
Temperature  
Mean Temperature 39 °F -  
Max Temperature 46 °F - - ()
Min Temperature 32 °F - - ()
Degree Days  
Heating Degree Days 26    
Moisture  
Dew Point 10 °F    
Average Humidity 31    
Maximum Humidity 87    
Minimum Humidity 19    
Precipitation  
Precipitation 0.00 in - - ()
Sea Level Pressure  
Sea Level Pressure 29.89 in    
Wind  
Wind Speed 8 mph (WNW)    
Max Wind Speed 32 mph    
Max Gust Speed 53 mph    
Visibility 9 miles    
Events Snow    
T = Trace of Precipitation, MM = Missing Value Source: NWS Daily Summary

Daily Weather History Graph

Daily Weather History Graph

Search for Another Location

Airport:

Trip Planner

Search our weather history database for the weather conditions in past years. The results will help you decide how hot, cold, wet, or windy it might be!

Date:

Astronomy

Nov. 03, 2013 Rise Set
Actual Time 6:34 AM MST 5:01 PM MST
Civil Twilight 6:06 AM MST 5:29 PM MST
Nautical Twilight 5:35 AM MST 6:01 PM MST
Astronomical Twilight 5:03 AM MST 6:32 PM MST
Moon 6:41 AM MST (11/3) 5:19 PM MST (11/3)
Length of Visible Light 11h 23m
Length of Day
10h 27m
New Moon, 0% of the Moon is Illuminated
Nov 3
New Moon
Nov 9
First Quarter
Nov 17
Full
Nov 25
Last Quarter
Dec 2
New

Hourly Weather History & Observations

Time (MST) Temp. Windchill Dew Point Humidity Pressure Visibility Wind Dir Wind Speed Gust Speed Precip Events Conditions
12:14 AM 39.2 °F - 1.4 °F 21% 30.08 in 10.0 mi Calm Calm - N/A   Clear
12:34 AM 39.2 °F - 1.4 °F 21% 30.08 in 10.0 mi Calm Calm - N/A   Clear
12:54 AM 39.2 °F - 3.2 °F 22% 30.07 in 10.0 mi Calm Calm - N/A   Clear
1:14 AM 37.4 °F 34.9 °F 3.2 °F 24% 30.05 in 10.0 mi NNE 3.5 mph - N/A   Clear
1:34 AM 41.0 °F 39.0 °F 1.4 °F 19% 30.05 in 10.0 mi WNW 3.5 mph - N/A   Clear
1:54 AM 41.0 °F 37.1 °F 3.2 °F 21% 30.05 in 10.0 mi NNW 5.8 mph - N/A   Clear
1:13 AM 41.0 °F 39.0 °F 3.2 °F 21% 30.04 in 10.0 mi NNW 3.5 mph - N/A   Clear
1:34 AM 41.0 °F 39.0 °F 5.0 °F 23% 30.04 in 10.0 mi North 3.5 mph - N/A   Clear
1:54 AM 41.0 °F 38.0 °F 5.0 °F 23% 30.04 in 10.0 mi West 4.6 mph - N/A   Clear
2:14 AM 41.0 °F 35.8 °F 3.2 °F 21% 30.02 in 10.0 mi NW 8.1 mph - N/A   Clear
2:34 AM 41.0 °F 35.8 °F 3.2 °F 21% 30.02 in 10.0 mi West 8.1 mph - N/A   Clear
2:53 AM 39.2 °F 37.0 °F 6.8 °F 26% 30.00 in 10.0 mi NW 3.5 mph - N/A   Clear
3:14 AM 41.0 °F 36.4 °F 3.2 °F 21% 29.98 in 10.0 mi WSW 6.9 mph 18.4 mph N/A   Clear
3:34 AM 41.0 °F 38.0 °F 3.2 °F 21% 29.98 in 10.0 mi SW 4.6 mph - N/A   Clear
3:54 AM 41.0 °F 36.4 °F 3.2 °F 21% 29.96 in 10.0 mi WNW 6.9 mph 17.3 mph N/A   Clear
4:14 AM 41.0 °F - 3.2 °F 21% 29.96 in 10.0 mi Calm Calm - N/A   Clear
4:33 AM 37.4 °F 33.8 °F 5.0 °F 26% 29.95 in 10.0 mi WNW 4.6 mph - N/A   Clear
4:54 AM 37.4 °F 33.8 °F 6.8 °F 28% 29.94 in 10.0 mi NNW 4.6 mph - N/A   Clear
5:14 AM 37.4 °F - 5.0 °F 26% 29.94 in 10.0 mi Calm Calm - N/A   Clear
5:34 AM 35.6 °F - 8.6 °F 33% 29.93 in 10.0 mi Calm Calm - N/A   Clear
5:54 AM 35.6 °F 31.7 °F 8.6 °F 33% 29.93 in 10.0 mi West 4.6 mph - N/A   Clear
6:14 AM 37.4 °F 32.8 °F 8.6 °F 30% 29.93 in 10.0 mi NNW 5.8 mph - N/A   Clear
6:34 AM 39.2 °F 34.2 °F 6.8 °F 26% 29.92 in 10.0 mi WNW 6.9 mph - N/A   Clear
6:53 AM 37.4 °F 34.9 °F 5.0 °F 26% 29.92 in 10.0 mi North 3.5 mph - N/A   Clear
7:14 AM 37.4 °F 34.9 °F 6.8 °F 28% 29.92 in 10.0 mi West 3.5 mph - N/A   Clear
7:34 AM 35.6 °F 31.7 °F 12.2 °F 38% 29.92 in 10.0 mi SSE 4.6 mph - N/A   Clear
7:54 AM 39.2 °F 31.6 °F 3.2 °F 22% 29.92 in 10.0 mi West 12.7 mph 19.6 mph N/A   Clear
8:14 AM 41.0 °F 33.5 °F 5.0 °F 23% 29.92 in 10.0 mi WSW 13.8 mph 23.0 mph N/A   Clear
8:34 AM 42.8 °F 37.0 °F 5.0 °F 21% 29.92 in 10.0 mi West 10.4 mph 31.1 mph N/A   Clear
8:53 AM 42.8 °F 39.3 °F 5.0 °F 21% 29.91 in 10.0 mi West 5.8 mph - N/A   Clear
9:14 AM 42.8 °F 39.3 °F 10.4 °F 27% 29.90 in 10.0 mi ESE 5.8 mph - N/A   Clear
9:34 AM 42.8 °F 39.3 °F 8.6 °F 25% 29.89 in 10.0 mi SW 5.8 mph 19.6 mph N/A   Clear
9:54 AM 42.8 °F 39.3 °F 12.2 °F 29% 29.89 in 10.0 mi NW 5.8 mph 18.4 mph N/A   Scattered Clouds
10:14 AM 42.8 °F 32.7 °F 15.8 °F 34% 29.88 in 10.0 mi West 27.6 mph 36.8 mph N/A   Mostly Cloudy
10:34 AM 42.8 °F 35.8 °F 15.8 °F 34% 29.88 in 10.0 mi West 13.8 mph 42.6 mph N/A   Overcast
10:54 AM 42.8 °F 35.1 °F 15.8 °F 34% 29.87 in 10.0 mi West 16.1 mph 27.6 mph N/A   Overcast
11:14 AM 44.6 °F 36.1 °F 17.6 °F 34% 29.85 in 10.0 mi West 21.9 mph 36.8 mph N/A   Mostly Cloudy
11:34 AM 44.6 °F 34.9 °F 15.8 °F 31% 29.84 in 10.0 mi West 28.8 mph 39.1 mph N/A   Mostly Cloudy
11:54 AM 44.6 °F 35.9 °F 15.8 °F 31% 29.82 in 10.0 mi West 23.0 mph 38.0 mph N/A   Scattered Clouds
12:14 PM 44.6 °F 35.9 °F 14.0 °F 29% 29.81 in 10.0 mi West 23.0 mph 38.0 mph N/A   Clear
12:33 PM 44.6 °F 36.6 °F 14.0 °F 29% 29.80 in 10.0 mi West 19.6 mph 35.7 mph N/A   Clear
12:54 PM 44.6 °F 34.7 °F 12.2 °F 27% 29.78 in 10.0 mi WSW 29.9 mph 47.2 mph N/A   Clear
1:14 PM 46.4 °F 37.2 °F 10.4 °F 23% 29.77 in 10.0 mi WSW 29.9 mph 47.2 mph N/A   Clear
1:34 PM 46.4 °F 37.2 °F 10.4 °F 23% 29.77 in 10.0 mi West 29.9 mph 52.9 mph N/A   Clear
1:54 PM 46.4 °F 36.9 °F 8.6 °F 22% 29.77 in 10.0 mi West 32.2 mph 46.0 mph N/A   Clear
2:14 PM 46.4 °F 37.4 °F 8.6 °F 22% 29.77 in 10.0 mi West 28.8 mph 43.7 mph N/A   Clear
2:34 PM 46.4 °F 38.5 °F 10.4 °F 23% 29.78 in 10.0 mi West 21.9 mph 41.4 mph N/A   Clear
2:54 PM 46.4 °F 37.7 °F 8.6 °F 22% 29.78 in 10.0 mi West 26.5 mph 42.6 mph N/A   Clear
3:13 PM 46.4 °F 37.9 °F 8.6 °F 22% 29.79 in 10.0 mi WSW 25.3 mph 40.3 mph N/A   Clear
3:34 PM 44.6 °F 40.7 °F 10.4 °F 25% 29.79 in 10.0 mi NW 6.9 mph - N/A   Scattered Clouds
3:54 PM 44.6 °F 39.7 °F 10.4 °F 25% 29.80 in 10.0 mi NW 9.2 mph 18.4 mph N/A   Mostly Cloudy
4:14 PM 44.6 °F 37.2 °F 10.4 °F 25% 29.81 in 10.0 mi West 17.3 mph 29.9 mph N/A   Overcast
4:34 PM 42.8 °F 35.4 °F 6.8 °F 23% 29.82 in 10.0 mi WSW 15.0 mph 34.5 mph N/A   Mostly Cloudy
4:54 PM 42.8 °F 34.8 °F 8.6 °F 25% 29.83 in 10.0 mi West 17.3 mph 29.9 mph N/A   Mostly Cloudy
5:14 PM 41.0 °F 35.8 °F 10.4 °F 29% 29.83 in 10.0 mi WNW 8.1 mph 21.9 mph N/A   Mostly Cloudy
5:33 PM 39.2 °F 33.6 °F 10.4 °F 31% 29.83 in 10.0 mi WNW 8.1 mph 20.7 mph N/A   Scattered Clouds
5:53 PM 37.4 °F 34.9 °F 12.2 °F 36% 29.84 in 10.0 mi NW 3.5 mph - N/A   Clear
6:14 PM 37.4 °F 28.9 °F 8.6 °F 30% 29.84 in 10.0 mi WNW 13.8 mph 23.0 mph N/A   Clear
6:33 PM 37.4 °F 30.8 °F 8.6 °F 30% 29.84 in 10.0 mi West 9.2 mph 18.4 mph N/A   Clear
6:54 PM 37.4 °F 31.4 °F 10.4 °F 33% 29.84 in 10.0 mi WNW 8.1 mph 17.3 mph N/A   Clear
7:14 PM 37.4 °F 29.3 °F 8.6 °F 30% 29.84 in 10.0 mi WSW 12.7 mph 20.7 mph N/A   Clear
7:34 PM 37.4 °F 32.1 °F 5.0 °F 26% 29.84 in 10.0 mi West 6.9 mph 28.8 mph N/A   Clear
7:54 PM 37.4 °F 28.5 °F 5.0 °F 26% 29.84 in 10.0 mi West 15.0 mph 34.5 mph N/A   Clear
8:14 PM 37.4 °F 28.5 °F 8.6 °F 30% 29.84 in 10.0 mi WNW 15.0 mph 44.9 mph N/A   Mostly Cloudy
8:34 PM 37.4 °F 28.2 °F 12.2 °F 36% 29.84 in 10.0 mi West 16.1 mph 31.1 mph N/A   Overcast
8:54 PM 35.6 °F 28.0 °F 14.0 °F 41% 29.85 in 10.0 mi NW 10.4 mph 24.2 mph N/A   Overcast
9:14 PM 33.8 °F 23.9 °F 21.2 °F 60% 29.84 in 5.0 mi WNW 15.0 mph 31.1 mph N/A Snow Light Snow
9:34 PM 32.0 °F 21.2 °F 24.8 °F 75% 29.85 in 1.8 mi WNW 16.1 mph 31.1 mph N/A Snow Light Snow
9:54 PM 32.0 °F 24.2 °F 28.4 °F 87% 29.87 in 0.2 mi NW 9.2 mph 19.6 mph N/A Snow Heavy Snow
10:14 PM 32.0 °F 20.8 °F 26.6 °F 80% 29.87 in 1.2 mi West 17.3 mph 27.6 mph N/A Snow Light Snow
10:34 PM 32.0 °F 22.5 °F 26.6 °F 80% 29.86 in 2.0 mi WNW 12.7 mph 24.2 mph N/A Snow Light Snow
10:54 PM 32.0 °F 21.2 °F 23.0 °F 69% 29.86 in 7.0 mi WNW 16.1 mph 26.5 mph N/A Snow Light Snow